EW0531 Weather Reports


Display with metric or nautical units.
time (UTC)temp
F
wind
direction
speed
MPH
gust
MPH
rain 1hr
in
rain 24hr
in
rain mn
in
humidity
%
barometer
mb
20260504231542 57 37 3.0 9.0 0.00 0.00 0.00 80 1014.2
20260504231036 57 0 0.0 10.0 0.00 0.00 0.00 80 1014.3
20260504230536 57 46 3.0 10.0 0.00 0.00 0.00 80 1014.3
20260504230050 57 55 3.0 10.0 0.00 0.00 0.00 79 1014.2
20260504225536 57 0 3.0 8.0 0.00 0.00 0.00 79 1014.2
20260504225036 57 355 3.0 8.0 0.00 0.00 0.00 80 1014.3
20260504224548 57 46 3.0 8.0 0.00 0.00 0.00 80 1014.3
20260504224037 57 15 1.0 6.0 0.00 0.00 0.00 80 1014.2
20260504223535 58 34 1.0 7.0 0.00 0.00 0.00 80 1014.2
20260504223101 58 26 2.0 7.0 0.00 0.00 0.00 80 1014.3
20260504222535 58 0 2.0 5.0 0.00 0.00 0.00 80 1014.3
20260504222034 58 44 1.0 6.0 0.00 0.00 0.00 80 1014.3
20260504221551 58 56 2.0 6.0 0.00 0.00 0.00 80 1014.4
20260504221036 58 66 2.0 5.0 0.00 0.00 0.00 80 1014.3
20260504220534 58 48 2.0 5.0 0.00 0.00 0.00 80 1014.4
20260504220050 58 35 1.0 5.0 0.00 0.00 0.00 80 1014.5
20260504215534 58 0 1.0 9.0 0.00 0.00 0.00 80 1014.5
20260504215036 58 72 2.0 9.0 0.00 0.00 0.00 79 1014.5
20260504214547 58 49 4.0 9.0 0.00 0.00 0.00 79 1014.5
20260504214038 58 64 3.0 9.0 0.00 0.00 0.00 79 1014.4
20260504213536 58 80 3.0 9.0 0.00 0.00 0.00 79 1014.5
20260504213050 58 71 4.0 9.0 0.00 0.00 0.00 79 1014.5
20260504212538 58 84 3.0 8.0 0.00 0.00 0.00 78 1014.4
20260504212033 58 75 4.0 8.0 0.00 0.00 0.00 78 1014.4
20260504211634 58 63 3.0 8.0 0.00 0.00 0.00 77 1014.3
20260504211033 58 34 1.0 4.0 0.00 0.00 0.00 76 1014.3
20260504210535 58 163 0.0 2.0 0.00 0.00 0.00 76 1014.3
20260504210050 58 0 0.0 0.0 0.00 0.00 0.00 76 1014.4
20260504205537 58 0 0.0 0.0 0.00 0.00 0.00 75 1014.4
20260504205035 58 0 0.0 0.0 0.00 0.00 0.00 75 1014.3
20260504204550 58 0 0.0 3.0 0.00 0.00 0.00 75 1014.3
20260504204036 58 0 0.0 4.0 0.00 0.00 0.00 75 1014.3
20260504203534 58 0 2.0 4.0 0.00 0.00 0.00 75 1014.4
20260504203049 58 0 0.0 3.0 0.00 0.00 0.00 74 1014.2
20260504202536 59 211 1.0 3.0 0.00 0.00 0.00 74 1014.3
20260504202033 59 211 0.0 3.0 0.00 0.00 0.00 74 1014.2
20260504201544 59 211 1.0 3.0 0.00 0.00 0.00 73 1014.3
20260504201035 59 211 1.0 3.0 0.00 0.00 0.00 73 1014.2
20260504200536 59 211 0.0 3.0 0.00 0.00 0.00 73 1014.1
20260504200052 59 211 1.0 3.0 0.00 0.00 0.00 73 1014.1
20260504195533 59 211 1.0 4.0 0.00 0.00 0.00 73 1014.1
20260504195034 59 211 1.0 4.0 0.00 0.00 0.00 73 1014.2
20260504194551 60 211 1.0 4.0 0.00 0.00 0.00 72 1014.1
20260504194037 60 224 2.0 5.0 0.00 0.00 0.00 72 1014.0
20260504193537 60 224 2.0 5.0 0.00 0.00 0.00 72 1013.9
20260504193053 60 219 3.0 5.0 0.00 0.00 0.00 72 1013.8
20260504192537 61 255 2.0 4.0 0.00 0.00 0.00 71 1013.8
20260504192034 61 239 2.0 4.0 0.00 0.00 0.00 71 1013.8
20260504191601 61 239 1.0 4.0 0.00 0.00 0.00 71 1013.9
20260504191034 61 240 2.0 5.0 0.00 0.00 0.00 71 1013.9
20260504190534 61 213 2.0 5.0 0.00 0.00 0.00 71 1013.9
20260504190106 61 236 2.0 6.0 0.00 0.00 0.00 71 1013.9
20260504185537 61 246 2.0 6.0 0.00 0.00 0.00 71 1013.8
20260504185034 61 208 2.0 4.0 0.00 0.00 0.00 71 1013.8
20260504184552 61 219 3.0 4.0 0.00 0.00 0.00 71 1013.8
20260504184036 62 225 0.0 4.0 0.00 0.00 0.00 70 1013.8
20260504183536 62 221 2.0 6.0 0.00 0.00 0.00 70 1013.8
20260504183050 62 257 2.0 6.0 0.00 0.00 0.00 69 1013.7
20260504182538 62 215 2.0 6.0 0.00 0.00 0.00 69 1013.8
20260504182036 62 219 2.0 7.0 0.00 0.00 0.00 68 1013.7
20260504181542 63 217 4.0 8.0 0.00 0.00 0.00 68 1013.7
20260504181037 63 256 3.0 8.0 0.00 0.00 0.00 66 1013.7
20260504180537 63 240 1.0 7.0 0.00 0.00 0.00 66 1013.7
20260504180053 63 263 2.0 7.0 0.00 0.00 0.00 66 1013.6
20260504175534 64 232 2.0 5.0 0.00 0.00 0.00 65 1013.6
20260504175036 64 269 3.0 5.0 0.00 0.00 0.00 65 1013.6
20260504174548 64 0 0.0 7.0 0.00 0.00 0.00 64 1013.6
20260504174034 65 0 0.0 7.0 0.00 0.00 0.00 63 1013.6
20260504173535 65 259 0.0 6.0 0.00 0.00 0.00 64 1013.6
20260504173054 64 0 2.0 6.0 0.00 0.00 0.00 64 1013.5
20260504172533 65 202 1.0 6.0 0.00 0.00 0.00 64 1013.5
20260504172036 64 245 0.0 6.0 0.00 0.00 0.00 65 1013.5
20260504171547 65 213 0.0 6.0 0.00 0.00 0.00 63 1013.5
20260504171033 65 0 0.0 6.0 0.00 0.00 0.00 62 1013.5
20260504170536 65 233 0.0 6.0 0.00 0.00 0.00 64 1013.5
20260504151037 67 143 0.0 6.0 0.00 0.00 0.00 62 1013.6
20260504150534 67 219 0.0 8.0 0.00 0.00 0.00 62 1013.6
20260504141036 67 0 1.0 7.0 0.00 0.00 0.00 64 1013.7
20260504140537 67 0 0.0 7.0 0.00 0.00 0.00 63 1013.8
20260504130536 66 0 3.0 11.0 0.00 0.00 0.00 60 1013.8
20260504110536 63 74 2.0 6.0 0.00 0.00 0.00 64 1014.2
20260504100535 60 5 2.0 8.0 0.00 0.00 0.00 70 1014.3
20260504081547 57 0 0.0 3.0 0.00 0.00 0.00 76 1014.0
20260504081036 57 59 1.0 3.0 0.00 0.00 0.00 75 1014.1
20260504080533 57 35 1.0 3.0 0.00 0.00 0.00 75 1013.9
20260504050536 54 0 0.0 0.0 0.00 0.00 0.00 82 1012.5
20260504045537 54 0 0.0 0.0 0.00 0.00 0.00 82 1012.3
20260504045036 54 0 0.0 0.0 0.00 0.00 0.00 82 1012.4
20260504044547 54 0 0.0 0.0 0.00 0.00 0.00 82 1012.3
20260504044036 54 0 0.0 0.0 0.00 0.00 0.00 82 1012.4
20260504043539 54 0 0.0 0.0 0.00 0.00 0.00 82 1012.4
20260504043047 54 0 0.0 0.0 0.00 0.00 0.00 82 1012.3
20260504042536 54 0 0.0 1.0 0.00 0.00 0.00 82 1012.3
20260504042039 54 0 0.0 1.0 0.00 0.00 0.00 82 1012.5
20260504041549 54 0 0.0 1.0 0.00 0.00 0.00 82 1012.4
20260504041036 54 0 0.0 1.0 0.00 0.00 0.00 81 1012.4
20260504040536 54 0 0.0 1.0 0.00 0.00 0.00 81 1012.4
20260504040113 54 0 0.0 2.0 0.00 0.00 0.00 81 1012.4
20260504035537 54 0 0.0 2.0 0.00 0.00 0.00 81 1012.4
20260504035037 54 257 0.0 2.0 0.00 0.00 0.00 81 1012.4
20260504034548 54 0 0.0 1.0 0.00 0.00 0.00 81 1012.4
20260504034036 54 0 0.0 1.0 0.00 0.00 0.00 81 1012.3
20260504033536 54 0 0.0 0.0 0.00 0.00 0.00 81 1012.3
20260504033048 54 0 0.0 0.0 0.00 0.00 0.00 81 1012.2
20260504032536 54 0 0.0 0.0 0.00 0.00 0.00 81 1012.4
20260504032035 54 0 0.0 0.0 0.00 0.00 0.00 81 1012.3
20260504031556 54 0 0.0 0.0 0.00 0.00 0.00 81 1012.4
20260504031036 54 0 0.0 0.0 0.00 0.00 0.00 81 1012.4
20260504030535 54 0 0.0 0.0 0.00 0.00 0.00 81 1012.4
20260504030049 54 0 0.0 0.0 0.00 0.00 0.00 81 1012.3
20260504025537 54 0 0.0 0.0 0.00 0.00 0.00 81 1012.3
20260504025037 54 0 0.0 1.0 0.00 0.00 0.00 81 1012.3
20260504024545 54 0 0.0 1.0 0.00 0.00 0.00 82 1012.3
20260504024036 54 0 0.0 1.0 0.00 0.00 0.00 82 1012.3
20260504023536 54 0 0.0 1.0 0.00 0.00 0.00 82 1012.5
20260504023043 54 0 0.0 1.0 0.00 0.00 0.00 82 1012.4
20260504022536 54 0 0.0 0.0 0.00 0.00 0.00 82 1012.4
20260504022037 54 0 0.0 0.0 0.00 0.00 0.00 82 1012.4
20260504021548 54 0 0.0 1.0 0.00 0.00 0.00 82 1012.5
20260504021039 54 0 0.0 1.0 0.00 0.00 0.00 82 1012.4
20260504020536 54 0 0.0 0.0 0.00 0.00 0.00 82 1012.4
20260504020100 54 0 0.0 0.0 0.00 0.00 0.00 82 1012.4
20260504015538 54 0 0.0 0.0 0.00 0.00 0.00 81 1012.4
20260504015034 54 0 0.0 1.0 0.00 0.00 0.00 82 1012.4
20260504014550 54 0 0.0 1.0 0.00 0.00 0.00 82 1012.5
20260504014035 54 0 0.0 1.0 0.00 0.00 0.00 82 1012.5
20260504013538 54 0 0.0 1.0 0.00 0.00 0.00 82 1012.4
20260504013046 54 0 0.0 1.0 0.00 0.00 0.00 82 1012.4
20260504012535 54 0 0.0 6.0 0.00 0.00 0.00 82 1012.4
20260504012040 54 0 1.0 6.0 0.00 0.00 0.00 82 1012.4
20260504011550 54 0 1.0 4.0 0.00 0.00 0.00 82 1012.2
20260504011035 54 0 0.0 4.0 0.00 0.00 0.00 82 1012.3
20260504010536 54 297 1.0 3.0 0.00 0.00 0.00 82 1012.3
20260504010048 54 0 0.0 6.0 0.00 0.00 0.00 82 1012.2
20260504005535 54 0 2.0 6.0 0.00 0.00 0.00 82 1012.2
20260504005040 54 290 0.0 2.0 0.00 0.00 0.00 82 1012.4
20260504004550 54 298 0.0 3.0 0.00 0.00 0.00 82 1012.3
20260504004038 54 0 0.0 4.0 0.00 0.00 0.00 82 1012.3
20260504003539 54 324 1.0 4.0 0.00 0.00 0.00 82 1012.3
20260504003046 54 0 1.0 4.0 0.00 0.00 0.00 82 1012.2
20260504002534 54 296 0.0 2.0 0.00 0.00 0.00 82 1012.2
20260504002034 54 301 0.0 2.0 0.00 0.00 0.00 82 1012.2
20260504001553 54 0 0.0 3.0 0.00 0.00 0.00 82 1012.2
20260504001034 54 0 0.0 4.0 0.00 0.00 0.00 82 1012.4
20260504000534 54 0 0.0 4.0 0.00 0.00 0.00 82 1012.4
20260504000050 54 244 1.0 4.0 0.00 0.00 0.00 82 1012.3
20260503235536 54 0 0.0 4.0 0.00 0.00 0.00 82 1012.3
20260503235036 54 0 0.0 4.0 0.00 0.00 0.00 82 1012.3
20260503234612 54 258 0.0 4.0 0.00 0.00 0.00 82 1012.3
20260503234036 54 299 0.0 4.0 0.00 0.00 0.00 82 1012.3
20260503233539 54 0 0.0 6.0 0.00 0.00 0.00 82 1012.3
20260503233050 54 202 0.0 6.0 0.00 0.00 0.00 82 1012.2
20260503232535 54 235 1.0 3.0 0.00 0.00 0.00 82 1012.2
20260503232036 54 270 0.0 3.0 0.00 0.00 0.00 82 1012.3